Location: Isles
(48.9995°N, 3.0061°E)
Time: 21:29:15
(UTC+00:00)

Daily predictions for brighter satellites

Satellite Brightness Start Highest point End
(mag) Time Altitude Azimuth Time Altitude Azimuth Time Altitude Azimuth
MOS 1 Rocket 4.1 20:27:40 10° SE 20:32:48 47° ENE 20:37:53 10° N
Cosmos 2285 Rocket 4.2 20:28:21 10° SSW 20:34:42 81° WNW 20:41:09 10° NNE
Cosmos 2333 Rocket 3.6 20:29:49 10° NNW 20:34:45 28° NE 20:39:41 10° ESE
Cosmos 841 Rocket 4.3 20:30:15 10° NNW 20:35:15 42° ENE 20:40:13 10° SE
Atlas Centaur 2 4.3 20:31:44 10° SW 20:37:12 20° S 20:42:39 10° SE
Cosmos 1441 Rocket 3.3 20:34:21 10° N 20:37:54 54° ENE 20:41:27 10° SSE
SL-16 R/B 2.7 20:32:28 10° NNW 20:38:01 52° NE 20:43:33 10° SE
ERS-1 Rocket 3.0 20:34:17 10° SSE 20:39:17 74° ENE 20:44:19 10° N
Cosmos 1763 Rocket 3.8 20:34:12 10° NNW 20:39:27 69° WSW 20:44:36 10° SSE
Cosmos 2369 4.2 20:33:59 10° NW 20:39:37 59° WSW 20:45:14 10° S
Resurs 01 Rocket 3.9 20:37:53 10° SW 20:41:20 22° W 20:44:49 10° NW
RESURS DK-1 3.6 20:37:43 10° NNW 20:41:22 31° NE 20:45:02 10° ESE
Cosmos 2082 Rocket 2.4 20:37:41 10° SSW 20:43:25 84° WNW 20:49:09 10° NNE
Spot 2 Rocket 3.7 20:38:55 10° SSE 20:43:53 62° ENE 20:48:55 10° N
Cosmos 1933 Rocket 3.6 20:41:26 10° N 20:45:54 89° WSW 20:50:19 10° S
Cosmos 1470 2.8 20:42:48 10° NNW 20:46:31 75° W 20:50:11 10° S
SPOT 5 3.1 20:44:20 10° S 20:48:34 59° W 20:52:54 10° NNW
Cosmos 1300 4.0 20:47:00 10° NNE 20:49:58 24° ENE 20:52:53 10° SE
Cosmos 1908 3.0 20:50:06 10° N 20:53:42 90° N 20:57:19 10° S
Cosmos 1346 Rocket 4.1 20:55:09 10° N 20:58:29 27° ENE 21:01:35 11° SE
Cosmos 1674 3.7 20:57:07 10° SSW 21:00:26 42° WNW 21:03:46 10° N
ATLAS 2AS CENTAUR R/B 3.3 20:54:00 10° NW 21:00:44 51° NE 21:07:12 10° ESE
Meteor 1-22 Rocket 4.3 20:57:07 10° N 21:02:43 71° ENE 21:08:26 10° SSE
Cosmos 468 Rocket 4.4 21:01:25 10° NNW 21:06:36 61° WSW 21:11:40 10° S
Ariane Rocket 3.0 21:03:18 10° SSE 21:08:24 88° WSW 21:13:32 10° NNW
Cosmos 1758 3.8 21:06:01 10° N 21:09:46 44° ENE 21:12:54 14° SE
Cosmos 1842 4.4 21:07:05 10° SSW 21:10:33 41° WNW 21:14:03 10° N
Meteor 1-4 Rocket 4.5 21:10:38 10° E 21:10:42 10° E 21:10:48 10° E
Cosmos 1356 Rocket 4.3 21:09:22 13° SSE 21:12:38 33° E 21:16:25 10° NNE
COSMOS 2406 3.9 21:11:01 10° SW 21:16:42 61° WNW 21:22:25 10° NNE
SPOT 3 Rocket 3.6 21:12:15 10° SSE 21:17:21 82° WSW 21:22:33 10° NNW
Meteor 1-13 Rocket 4.4 21:13:29 10° SSW 21:19:19 84° WNW 21:25:03 10° N
Cosmos 1707 Rocket 4.2 21:16:09 13° SSE 21:19:44 40° E 21:23:54 10° NNE
SL-27 R/B 3.6 21:19:33 16° ESE 21:20:11 17° ESE 21:22:05 10° ENE
ARIANE 5 R/B 4.2 21:17:31 10° ESE 21:20:52 23° ENE 21:24:17 10° N
Cosmos 1980 Rocket 4.1 21:17:46 10° NW 21:22:03 22° W 21:26:17 10° SSW
Cosmos 2322 Rocket 2.3 21:16:59 10° NNW 21:22:41 70° ENE 21:27:28 15° SE
S3M 4.1 21:16:24 10° N 21:22:49 83° W 21:29:06 10° S
Spot 1 4.4 21:19:45 10° NNE 21:24:08 55° ESE 21:28:33 11° S
Cosmos 1655 Rocket 4.1 21:23:13 10° S 21:29:33 69° E 21:35:56 10° NNE
SJ 16-02 2.6 21:28:53 16° SE 21:31:00 23° E 21:34:26 10° NE
Cosmos 2278 4.2 21:25:55 10° NW 21:31:31 56° WSW 21:36:25 13° S
Landsat 5 3.5 21:27:37 10° NNE 21:31:33 59° ESE 21:35:02 13° S
Cosmos 1741 Rocket 4.2 21:31:50 10° S 21:36:56 54° ESE 21:42:06 10° NNE
Tiangong 0.1 21:36:01 10° SW 21:37:20 12° SSW 21:37:28 12° SSW
USA 281 3.6 21:32:45 13° SE 21:38:29 56° NE 21:44:54 10° NNW
Cosmos 2266 Rocket 4.2 21:32:59 10° SSW 21:39:18 75° W 21:45:44 10° N
Cosmos 1400 Rocket 2.9 21:35:36 10° SSW 21:39:30 72° WNW 21:43:22 10° N
COSMOS 2428 4.4 21:35:46 10° NNW 21:40:30 26° NE 21:45:13 10° E
Cosmos 1733 Rocket 3.1 21:36:39 10° N 21:41:05 77° E 21:44:16 18° SSE
MetOp-A 4.1 21:37:25 16° SSE 21:41:36 89° E 21:46:55 10° NNW
Okean 3 3.9 21:39:26 19° SSE 21:42:03 43° E 21:46:01 10° NNE
GP-B 4.5 21:38:45 10° NNE 21:42:23 25° E 21:44:46 16° SE
Terra 3.0 21:38:21 10° SSW 21:42:40 36° W 21:47:01 10° NNW
Cosmos 968 Rocket 3.8 21:41:01 15° S 21:45:00 46° ESE 21:49:57 10° NNE
Cosmos 1814 Rocket 4.4 21:40:53 10° NNW 21:46:06 57° ENE 21:50:00 18° SE
SL-4 R/B 2.5 21:43:09 10° W 21:47:00 60° N 21:51:07 10° ENE
Cosmos 2228 Rocket 3.1 21:44:42 13° S 21:48:45 87° E 21:53:22 10° N
Cosmos 2219 Rocket 2.8 21:45:49 10° NNW 21:51:22 51° NE 21:55:47 16° SE
Cosmos 1315 Rocket 3.8 21:51:04 21° SE 21:52:54 31° E 21:56:28 10° NNE
ATLAS CENTAUR R/B 1.3 21:52:13 20° S 21:54:13 42° ESE 21:57:39 10° NE
Meteor 2-10 Rocket 4.1 21:50:32 10° NNW 21:56:04 58° W 22:00:34 14° S
SeaSat 1 4.4 21:52:50 10° SSW 21:56:24 20° WSW 22:00:00 10° WNW
Cosmos 1953 2.9 21:55:13 10° N 21:58:54 41° ENE 22:00:51 23° SE
Cosmos 1455 2.9 21:58:49 10° N 22:02:06 37° ENE 22:03:41 23° SE
H-2A R/B 3.7 21:59:30 17° ESE 22:02:10 32° ENE 22:06:00 10° N
Cosmos 1242 Rocket 3.8 22:04:20 16° E 22:04:26 16° E 22:06:18 10° NE
USA 234 3.7 21:59:43 10° NE 22:06:12 67° NNW 22:12:40 10° WSW
Okean 1-7 3.3 22:04:58 24° SSE 22:07:19 51° E 22:11:32 10° NNE
BREEZE-M DEB (TANK) 2.7 22:06:11 10° W 22:08:15 38° SSW 22:09:08 29° SSE
CZ-2C R/B 3.9 22:04:51 10° NNE 22:09:10 52° E 22:11:36 24° SSE
Cosmos 2360 Rocket 2.4 22:08:49 10° NNW 22:14:27 65° WSW 22:18:06 22° S
ALOS 2 4.1 22:11:53 15° ESE 22:14:37 27° ENE 22:18:20 10° N
RESURS DK-1 3.5 22:15:27 10° NW 22:19:05 32° WSW 22:21:10 20° SSW
Cosmos 2333 Rocket 2.4 22:13:48 10° NNW 22:19:30 65° WSW 22:23:08 23° S
SL-14 R/B 4.5 22:17:25 10° SW 22:20:54 37° WNW 22:24:28 10° N
SL-16 R/B 3.5 22:16:59 10° NW 22:21:51 30° WSW 22:25:47 14° SSW
Cosmos 1300 4.3 22:21:39 10° NNW 22:24:37 25° W 22:26:54 14° SW
Atlas Centaur 2 4.2 22:20:01 10° SW 22:25:04 18° SSW 22:25:49 17° S
EXPRESS MD2 2.0 22:24:36 10° W 22:26:53 73° N 22:27:54 26° ENE
OPS 8737 4.0 22:24:51 10° NW 22:27:47 87° NE 22:28:45 40° SE
SL-08 R/B 4.4 22:25:46 22° S 22:29:55 74° E 22:36:01 10° NNE
BREEZE-M DEB (TANK) 3.9 22:14:46 10° W 22:31:44 88° NNW 22:35:55 10° E
Aureole 3 4.0 22:30:50 18° SSW 22:33:28 53° WNW 22:38:02 10° N
Cosmos 1346 Rocket 4.3 22:31:00 10° NW 22:34:17 27° W 22:36:35 16° SW
Cosmos 1703 Rocket 3.6 22:32:44 28° S 22:34:56 65° E 22:39:23 10° NNE
Cosmos 1833 4.2 22:30:08 13° SSW 22:35:17 90° NW 22:40:56 10° NNE
DNEPR-1 R/B 4.3 22:29:36 10° NW 22:36:28 83° SW 22:39:56 25° SSE
Meteor 1-4 Rocket 3.0 22:41:49 25° SW 22:43:08 42° WNW 22:46:01 10° N
Cosmos 839 Rocket 4.2 22:37:07 10° NW 22:44:01 65° WSW 22:47:42 25° SSE
Cosmos 1932 4.4 22:38:31 14° SSW 22:44:05 71° SE 22:50:21 10° NE
Cosmos 2322 3.8 22:40:16 10° NNW 22:45:59 75° ENE 22:49:29 24° SE
Cosmos 2237 Rocket 3.7 22:41:55 10° NNW 22:46:58 32° NE 22:51:59 10° ESE
BlueWalker 3 3.8 22:50:03 16° ESE 22:50:03 16° ESE 22:51:19 10° E
ATLAS 2AS CENTAUR R/B 3.1 22:45:10 10° NW 22:51:39 48° WSW 22:55:16 25° S
SL-27 R/B 4.1 22:50:57 12° WSW 22:52:59 22° WNW 22:55:17 10° N
Cosmos 2227 Rocket 4.4 22:54:23 10° ESE 22:55:28 11° E 22:56:33 10° E
ARIANE 5 R/B 3.3 22:54:58 26° SSW 22:57:01 44° W 23:01:11 10° NNW
PSLV R/B 4.2 22:56:46 10° N 23:00:44 62° WNW 23:02:50 26° SW
Okean 2 4.2 23:00:22 20° SW 23:02:43 43° WNW 23:06:34 10° N
Cosmos 2322 Rocket 3.9 23:01:57 10° NW 23:06:10 22° W 23:09:15 14° SW
Cosmos 1570 Rocket 4.0 23:01:18 10° NNW 23:06:39 77° WSW 23:09:22 30° SSE
Cosmos 1703 4.0 23:06:48 30° ESE 23:07:40 34° E 23:11:02 10° NNE
PSLV R/B 4.4 23:03:46 10° NNE 23:07:42 35° E 23:08:58 29° SE
Cosmos 1745 Rocket 4.0 23:05:11 25° S 23:09:05 88° ESE 23:15:30 10° N
SJ 16-02 2.4 23:05:36 13° SW 23:09:07 41° WNW 23:13:14 10° N
Cosmos 1241 Rocket 4.5 23:04:14 11° SW 23:10:12 82° NW 23:16:30 10° NE
COSMOS 2455 3.5 23:08:59 27° SSE 23:11:26 39° ESE 23:16:59 10° NE
Cosmos 2297 Rocket 3.3 23:13:10 23° SE 23:15:11 29° ESE 23:19:58 10° NE
Nadezhda 1 Rocket 4.2 23:11:50 10° NNW 23:18:05 65° W 23:21:42 26° SSW
GP-B 4.2 23:15:35 10° NNW 23:19:40 37° W 23:22:05 21° SW
Cosmos 1408 1.8 23:22:14 68° SSW 23:22:33 88° W 23:25:34 10° N
USA 281 4.1 23:19:37 21° SSW 23:23:13 36° WSW 23:29:13 10° NW
COSMOS 2428 2.7 23:19:37 10° NNW 23:25:19 72° WSW 23:28:12 30° SSE
SL-4 R/B 2.2 23:22:01 10° WNW 23:26:04 73° NNE 23:30:21 10° E
GEOS 3 Rocket 4.1 23:24:56 10° NE 23:29:46 39° ESE 23:31:28 30° SSE
ATLAS CENTAUR R/B 3.2 23:29:04 10° W 23:32:02 25° NW 23:35:06 10° NNE
Cosmos 1782 Rocket 4.2 23:28:29 10° NNW 23:32:35 43° W 23:34:15 29° SW
CZ-3 Stage 3 4.5 23:14:03 10° W 23:33:33 26° SW 23:37:06 22° SSW
Cosmos 1953 4.3 23:31:49 10° NW 23:34:23 17° W 23:35:58 14° WSW
Cosmos 2219 Rocket 3.3 23:30:10 10° NW 23:35:03 31° WSW 23:37:28 22° SW
Cosmos 1455 4.2 23:34:02 10° NW 23:36:14 16° W 23:37:25 14° WSW
Cosmos 1242 Rocket 3.9 23:35:32 18° W 23:36:20 21° WNW 23:38:32 10° NNW
H-2A R/B 3.8 23:35:29 23° SW 23:37:04 30° W 23:40:53 10° NW
Cosmos 2208 Rocket 4.2 23:32:15 10° NNW 23:37:21 57° WSW 23:39:34 32° S
Cosmos 1892 3.9 23:38:13 24° ESE 23:38:58 26° E 23:41:56 10° NNE
Cosmos 158 Rocket 4.2 23:34:37 10° NNW 23:39:51 58° WSW 23:42:07 32° S
Cosmos 371 Rocket 3.3 23:38:59 35° S 23:40:54 64° ESE 23:45:41 10° NNE
BREEZE-M DEB (TANK) 4.1 23:39:03 10° W 23:42:40 88° N 23:55:13 10° E
NOSS 8 (E) 4.3 23:45:43 44° SSW 23:46:44 79° SE 23:49:53 10° NE
Cosmos 773 Rocket 3.9 23:42:05 10° NNW 23:47:16 88° WSW 23:49:51 30° SSE
Cosmos 2151 Rocket 3.8 23:43:46 10° N 23:48:09 60° ENE 23:50:03 31° SE
USA 234 4.4 23:42:34 10° ENE 23:48:43 45° N 23:54:51 10° WNW
ALOS 2 3.5 23:49:16 28° SW 23:50:49 37° W 23:54:55 10° NNW
GENESIS II 4.3 23:49:40 30° WSW 23:51:18 66° NW 23:54:56 10° NE
Cosmos 2263 Rocket 4.4 23:51:12 10° ESE 23:53:07 12° E 23:55:02 10° ENE
Cosmos 1503 Rocket 4.1 23:51:55 32° S 23:54:22 65° ESE 23:59:37 10° NNE
Okean 2 Rocket 3.3 23:51:02 10° N 23:55:30 66° E 23:57:29 32° SSE
Cosmos 2360 Rocket 4.5 23:56:17 10° W 23:57:18 10° W 23:58:19 10° WSW
